THOR ABLESTAR DEB, 644

Orbit data source: Space-Track

THOR ABLESTAR DEB, 644 is space debris in LEO originally from a launch on Thu, 29 Jun 1961 UTC launched from the Air Force Eastern Test Range (AFETR). Debris objects in space refer to the collection of defunct objects orbiting the Earth. Examples of debris include non-operational satellites, rocket bodies, and fragments generated from explosions, collisions, or faulty payload assembly.

Loading next visibility...
Identifier
644, 1961-015GV
Orbit
LEO
Country
Flag of USUS
Related business
Manufacturer
Unknown
Mission
Spacecraft
Bus & Motor
Unknown
Mass
Unknown
Launch date (UTC)
1961-06-29 (65 years ago)
Launch vehicle
Unknown
Launch site
Air Force Eastern Test Range (AFETR)
Object type
Payload
Rocket body
Debris
Shape & HBR
Unknown shape, 0.1 m
Radar Cross Section
Small (<0.1 m²)

Expand to show TLE details & history
Last TLE update: 11 hours ago

TLE from 11 hours ago
0 THOR ABLESTAR DEB
1   644U 61015GV  26095.25805140  .00000835  00000-0  11158-2 0  9998
2   644  67.0967 103.6030 0135037 169.8246 203.1112 13.61256886187810
Epoch: 2026-04-05T06:11Z
TLE epoch observation values (Epoch: 2026-04-05T06:11:35.640Z)
Latitude
11.31989°
Longitude
-178.03484°
Altitude
1,124.679 km
Speed
7.246 km/s
True Right ascension
07h 13m 43s
True Declination
11° 15' 26"
Sunlit
Object was in daylight at epoch
Visualization orbit readout
Latitude
Unknown
Longitude
Unknown
Altitude
Unknown
Speed
Unknown
Apparent Right ascension
Unknown
Apparent Declination
Unknown
Sunlit
N/A
Visualization observer readout
Local Sidereal Time
23:14:03
Azimuth
Unknown
Elevation
Unknown
Doppler factor
Unknown
Orbital elements
Apogee altitude
1,129.541 km
Perigee altitude
929.48 km
Semi-major axis
7,407.648 km
Eccentricity
0.0135
Inclination
67.0967°
RAAN
103.603°
Arg. of periapsis
169.8246°
True anomaly
202.51312°
Mean anomaly
203.1112°
Eccentric anomaly
202.81124°
Mean motion
3.40426 °/min
Orbital period
105.75 mins
BSTAR
0.0011158
Loading maneuver chart data...
Computing Atmospheric mass density...

Documentation

Showing up to 5 results
|